This is the latest recevied weather packets stored in our database for station/object SQ5VCO-13. If no packets are shown the sender has not sent any weather packets the latest 10 day(s).
| Time | Temp. | Humidity | Pressure | Rain* | Wind** | Luminosity | Snow |
|---|---|---|---|---|---|---|---|
| 1778250004 | 10.56° C | 75% | 1017.7 hPa | 0 mm | - | - | - |
| 1778249403 | 10.56° C | 75% | 1017.7 hPa | 0 mm | - | - | - |
| 1778248804 | 10.56° C | 75% | 1017.7 hPa | 0 mm | - | - | - |
| 1778248204 | 10.56° C | 75% | 1017.2 hPa | 0 mm | - | - | - |
| 1778245937 | 10.56° C | 75% | 1017.4 hPa | 0 mm | - | - | - |
| 1778242504 | 11.67° C | 72% | 1017.4 hPa | 0 mm | - | - | - |
| 1778240704 | 11.11° C | 73% | 1017.3 hPa | 0 mm | - | - | - |
| 1778237703 | 11.11° C | 74% | 1017 hPa | 0 mm | - | - | - |
| 1778237535 | 11.11° C | 74% | 1017.1 hPa | 0 mm | - | - | - |
| 1778235733 | 10.56° C | 75% | 1016.9 hPa | 0 mm | - | - | - |
| 1778234404 | 10.56° C | 75% | 1017 hPa | 0 mm | - | - | - |
| 1778234104 | 10.56° C | 75% | 1017.1 hPa | 0 mm | - | - | - |
| 1778232134 | 10.56° C | 75% | 1016.8 hPa | 0 mm | - | - | - |
| 1778229604 | 10.56° C | 74% | 1016.6 hPa | 0 mm | - | - | - |
| 1778229303 | 10.56° C | 74% | 1016.5 hPa | 0 mm | - | - | - |
| 1778228104 | 11.11° C | 75% | 1016.7 hPa | 0 mm | - | - | - |
| 1778225704 | 10.56° C | 79% | 1016.3 hPa | 0 mm | - | - | - |
| 1778225237 | 10.56° C | 80% | 1016.2 hPa | 0 mm | - | - | - |
| 1778224034 | 10.56° C | 81% | 1016.1 hPa | 0 mm | - | - | - |
| 1778222836 | 10.56° C | 82% | 1015.9 hPa | 0 mm | - | - | - |
| 1778222104 | 10° C | 82% | 1015.9 hPa | 0 mm | - | - | - |
| 1778221504 | 10° C | 83% | 1015.9 hPa | 0 mm | - | - | - |
| 1778219703 | 10° C | 87% | 1015.5 hPa | 0 mm | - | - | - |
| 1778218504 | 9.44° C | 90% | 1015.3 hPa | 0 mm | - | - | - |
| 1778217004 | 9.44° C | 91% | 1015.3 hPa | 0 mm | - | - | - |
* Rain latest hour (hover to see other rain measurements)
** Current wind speed in m/s (hover to see current wind gust speed)